Regional Weather Roundup
Issued by NWS Newport/Morehead, NC

Current Version | Previous Version | Text Only | Print | Product List | Glossary On
Versions: 1 2 3 4 5 6 7 8 9 10 11 12 13 14 15 16 17 18 19 20 21 22 23 24 25 26 27 28 29 30 31 32 33 34 35 36 37 38 39 40 41 42 43 44 45 46 47 48 49 50
000
ASUS42 KMHX 240613
RWRMHX
WEATHER ROUNDUP FOR EASTERN NORTH CAROLINA
NATIONAL WEATHER SERVICE NEWPORT/MOREHEAD CITY NC
200 AM EDT WED AUG 24 2016

NOTE: "FAIR" INDICATES FEW OR NO CLOUDS BELOW 12,000 FEET
WITH NO SIGNIFICANT WEATHER AND/OR OBSTRUCTIONS TO VISIBILITY

NCZ015>017-031-032-045>047-102-103-240700-
NORTH COAST

CITY           SKY/WX    TMP DP  RH WIND       PRES   REMARKS
EDENTON        CLEAR     65  65 100 CALM      30.27F
ELIZABETH CITY CLEAR     69  61  75 NE5       30.27F
KITTY HAWK     CLEAR     71  63  76 CALM      30.25F
MANTEO         CLEAR     70  60  70 NE6       30.26F

$$

NCZ045>047-081-094-103-104-240700-
CENTRAL COAST

CITY           SKY/WX    TMP DP  RH WIND       PRES   REMARKS
FRISCO         CLEAR     73  63  70 NE5       30.24F

$$

NCZ095-097-098-100-101-240700-
SOUTHERN COAST

CITY           SKY/WX    TMP DP  RH WIND       PRES   REMARKS
BEAUFORT       CLEAR     70  62  76 N3        30.25F
CEDAR ISLAND   NOT AVBL
JACKSONVILLE   CLEAR     72  63  73 N3        30.26F
PINEY ISLAND   NOT AVBL
WILMINGTON     CLEAR     70  65  84 N3        30.25F


$$

NCZ011>013-027>030-043-044-078>080-089-090>093-098-240700-
COASTAL PLAIN

CITY           SKY/WX    TMP DP  RH WIND       PRES   REMARKS
AHOSKIE        CLEAR     61  60  95 CALM      30.28F
CLINTON        CLEAR     70  67  90 CALM      30.28S
ELIZABETHTOWN  CLEAR     70  66  88 CALM      30.27S
GOLDSBORO      PTCLDY    68  67  94 CALM      30.26F
GREENVILLE     CLEAR     64  63  94 CALM      30.28F
HAVELOCK       CLEAR     73  60  63 N3        30.27F
KENANSVILLE    NOT AVBL
KINSTON        CLEAR     66  64  92 CALM      30.28F
NEW BERN       CLEAR     70  60  70 NE3       30.28F
RICHLANDS      CLEAR     66  65  96 CALM      30.27F
ROCKY MOUNT    CLEAR     64  63  96 CALM      30.28F
WASHINGTON     CLEAR     63  60  91 CALM      30.27F
WHITEVILLE     CLEAR     71  67  88 CALM      30.25S

$$

AMZ130-135-150-152-154-156-158-170-250-252-270-ANZ085-086-088-633-658-670-240700-
MARINE OBSERVATIONS

STATION/POSITION TIME  TEMP    WIND        PRES    WAVE   SWELL
                       AIR SEA DIR/SP/G            HT/PER HT/PER
                 (UTC) (F)     (DEG/KT/KT) (MB)    (FT/S) (FT/S)
CHESAPEAKE LIGHT NOT AVBL
64 E VA BEACH    0550   76 81   30/ 12/ 14 1024.4    3/ 4   2/ 6
DUCK             0500   76 78   40/ 12/ 13 1024.4
2 E DUCK         0511      78                N/A     3/ 6
OREGON INLET     0500   75 78   30/  8/ 10 1024.6
13E OREGON INLT  0500      76                N/A     4/ 5   3/ 5
HATTERAS CG      0500   75 80   40/  6/  9 1024.2
DIAMOND BUOY     0550   78 84   30/ 12/ 14 1023.5    3/ 8   2/ 8
CAPE LOOKOUT     0600   77      10/  7/  8 1023.7
BEAUFORT LAB     0500   75 82   40/  3/  5 1024.0
30 SE NEW RVR IN 0508   80 85   60/ 17/ 23 1023.7
30 SE NEW RVR IN 0525      84                N/A     4/ 5
27 SE WRIGHTSVLE 0508   81 84   60/ 14/ 19 1024.0
5 SE WRIGHTSVLE  0508   80 83   70/ 16/ 19 1025.0
225 S CAPE HAT   0550   82 85   60/ 14/ 17 1021.0    4/ 5   2/ 8
41 SE CHARLESTON 0550   83 85   60/ 14/ 16 1022.1    3/ 7   2/ 7

$$




USA.gov is the U.S. government's official web portal to all federal, state and local government web resources and services.